Simultaneous Nadir Overpasses (SNOs) Predictions

Prediction of SNOs over PacNW region [( 10.00, 139.50) to ( 22.70, 165.60)] between AQUA and NPP Satellites:

Table of predicted SNOs over PacNW region for the next 30.0 days since TLE Epoch: 8/23/2019
Index Date (AQUA) Time (AQUA) AQUA Lat,Lon Date (NPP) Time (NPP) NPP Lat,Lon Distance(km) Time Diff (sec)
1 08/26/2019 15:59:10 22.61, 147.50 08/26/2019 16:02:10 23.25, 144.54 310.84 180
2 09/03/2019 15:09:43 22.58, 159.85 09/03/2019 15:11:26 23.20, 157.22 277.62 103
3 09/06/2019 03:31:33 22.68, 147.53 09/06/2019 03:28:03 23.92, 145.43 255.67 210
4 09/11/2019 15:59:09 22.58, 147.49 09/11/2019 16:02:11 23.24, 144.55 309.57 182
5 09/19/2019 15:09:40 22.59, 159.85 09/19/2019 15:11:27 23.16, 157.23 276.61 107




NCC Satellite Simultaneous Nadir Overpasses (SNOs) Prediction Service
